User: anonymous   Login
Location: Cluny
(50.9333°N, 112.8167°W)
Time: 09:58:54
(UTC-07:00)
Language:

Cosmos 1743 Rocket - Orbit

View from above orbital plane
View from above orbital plane
View from above satellite
View from above satellite

Ground track
Ground track

The orbit data is extracted from the following two-line orbital elements,

1 16720U 86034B   15028.95908770  .00000407  00000-0  46992-4 0  6710
2 16720 082.5574 332.6652 0021997 092.8762 313.1201 14.82957564550279
Epoch (UTC): 28 January 2015 23:01:05
Eccentricity: 0.0021997
inclination: 82.5574°
perigee height: 604 km
apogee height: 635 km
right ascension of ascending node: 332.6652°
argument of perigee: 92.8762°
revolutions per day: 14.82957564
mean anomaly at epoch: 313.1201°
orbit number at epoch: 55027

The dashed part of the orbit path shows where the satellite is in the earth's shadow,  

DLR